User: anonymous   Login
Location: Nag� el Ma?a??a
(24.0667°N, 32.8833°E)
Time: 23:48:43
(UTC+00:00)
Language:

Cosmos 1709 Rocket - Orbit

View from above orbital plane
View from above orbital plane
View from above satellite
View from above satellite

Ground track
Ground track

The orbit data is extracted from the following two-line orbital elements,

1 16369U 85116B   21333.47351756  .00000053  00000-0  38847-4 0  9998
2 16369  82.9390 218.7391 0035196 288.7173 244.6223 13.76886267805469
Epoch (UTC): 29 November 2021 11:21:51
Eccentricity: 0.0035196
inclination: 82.9390°
perigee height: 949 km
apogee height: 1001 km
right ascension of ascending node: 218.7391°
argument of perigee: 288.7173°
revolutions per day: 13.76886267
mean anomaly at epoch: 244.6223°
orbit number at epoch: 80546

The dashed part of the orbit path shows where the satellite is in the earth's shadow,  

DLR